EN

Hourly Weather Baroncea

Today, 20 January, Wednesday

Time Temperature Precipitation Wind Pressure Humidity
00:00 -9°C° 0 mm 2 mps 754 mmHg 72%
01:00 -8°C° 0 mm 1 mps 754 mmHg 72%
02:00 -9°C° 0 mm 2 mps 754 mmHg 74%
03:00 -9°C° 0 mm 2 mps 754 mmHg 76%
04:00 -9°C° 0 mm 2 mps 753 mmHg 78%
05:00 -9°C° 0 mm 2 mps 753 mmHg 80%
06:00 -10°C° 0 mm 3 mps 753 mmHg 82%
07:00 -9°C° 0 mm 3 mps 753 mmHg 83%
08:00 -9°C° 0 mm 3 mps 753 mmHg 85%
09:00 -9°C° 0 mm 3 mps 753 mmHg 85%
10:00 -9°C° 0 mm 4 mps 753 mmHg 85%
11:00 -9°C° 0 mm 4 mps 753 mmHg 86%
12:00 -8°C° 0 mm 4 mps 753 mmHg 86%
13:00 -6°C° 0 mm 3 mps 753 mmHg 85%
14:00 -5°C° 0 mm 3 mps 753 mmHg 85%
15:00 -6°C° 0 mm 3 mps 753 mmHg 88%
16:00 -6°C° 0 mm 3 mps 753 mmHg 90%
17:00 -7°C° 0 mm 3 mps 753 mmHg 93%
18:00 -7°C° 0 mm 3 mps 754 mmHg 94%
19:00 -7°C° 0 mm 3 mps 754 mmHg 95%
20:00 -6°C° 0 mm 2 mps 754 mmHg 96%
21:00 -5°C° 0 mm 2 mps 754 mmHg 96%
22:00 -6°C° 0 mm 3 mps 754 mmHg 96%
23:00 -6°C° 0 mm 3 mps 754 mmHg 96%

Tomorrow, 21 January, Thursday

Time Temperature Precipitation Wind Pressure Humidity
00:00 -6°C° 0 mm 3 mps 754 mmHg 95%
01:00 -6°C° 0 mm 3 mps 754 mmHg 95%
02:00 -6°C° 0 mm 3 mps 754 mmHg 94%
03:00 -6°C° 0 mm 3 mps 754 mmHg 94%
04:00 -6°C° 0 mm 3 mps 754 mmHg 94%
05:00 -6°C° 0 mm 3 mps 754 mmHg 94%
06:00 -6°C° 0 mm 3 mps 754 mmHg 93%
07:00 -6°C° 0 mm 3 mps 754 mmHg 93%
08:00 -5°C° 0 mm 2 mps 754 mmHg 92%
09:00 -5°C° 0 mm 3 mps 754 mmHg 89%
10:00 -2°C° 0 mm 3 mps 754 mmHg 86%
11:00 -1°C° 0 mm 3 mps 754 mmHg 83%
12:00 0°C° 0 mm 3 mps 753 mmHg 82%
13:00 0°C° 0 mm 3 mps 753 mmHg 82%
14:00 +1°C° 0 mm 3 mps 753 mmHg 82%
15:00 0°C° 0 mm 3 mps 753 mmHg 84%
16:00 -1°C° 0 mm 3 mps 752 mmHg 87%
17:00 -1°C° 0 mm 3 mps 752 mmHg 90%
18:00 -1°C° 0 mm 3 mps 752 mmHg 90%
19:00 -2°C° 0 mm 3 mps 752 mmHg 91%
20:00 -2°C° 0 mm 3 mps 752 mmHg 91%
21:00 -2°C° 0 mm 3 mps 752 mmHg 91%
22:00 -2°C° 0 mm 3 mps 752 mmHg 90%
23:00 -2°C° 0 mm 3 mps 752 mmHg 90%

Day after tomorrow, 22 January, Friday

Time Temperature Precipitation Wind Pressure Humidity
00:00 -2°C° 0 mm 2 mps 752 mmHg 89%
01:00 -2°C° 0 mm 2 mps 752 mmHg 88%
02:00 -2°C° 0 mm 2 mps 752 mmHg 88%
03:00 -2°C° 0 mm 2 mps 751 mmHg 87%
04:00 -2°C° 0 mm 3 mps 751 mmHg 86%
05:00 -2°C° 0 mm 3 mps 751 mmHg 85%
06:00 -1°C° 0 mm 3 mps 751 mmHg 84%
07:00 -1°C° 0 mm 3 mps 750 mmHg 83%
08:00 -1°C° 0 mm 3 mps 750 mmHg 82%
09:00 0°C° 0 mm 3 mps 750 mmHg 80%
10:00 +1°C° 0 mm 3 mps 750 mmHg 77%
11:00 +2°C° 0 mm 3 mps 750 mmHg 74%
12:00 +2°C° 0 mm 3 mps 749 mmHg 75%
13:00 +3°C° 0 mm 3 mps 749 mmHg 75%
14:00 +3°C° 0 mm 4 mps 749 mmHg 75%
15:00 +1°C° 0 mm 4 mps 748 mmHg 79%
16:00 0°C° 0 mm 4 mps 748 mmHg 83%
17:00 -1°C° 0 mm 4 mps 748 mmHg 88%
18:00 -1°C° 0 mm 4 mps 747 mmHg 88%
19:00 0°C° 0 mm 3 mps 747 mmHg 88%
20:00 0°C° 0 mm 3 mps 747 mmHg 88%
21:00 0°C° 0 mm 3 mps 747 mmHg 88%
22:00 0°C° 0 mm 3 mps 747 mmHg 87%
23:00 +1°C° 0 mm 2 mps 747 mmHg 86%

23 January, Saturday

Time Temperature Precipitation Wind Pressure Humidity
00:00 +1°C° 0 mm 2 mps 746 mmHg 86%
01:00 0°C° 0 mm 3 mps 746 mmHg 85%
02:00 0°C° 0 mm 3 mps 746 mmHg 84%
03:00 +1°C° 0 mm 2 mps 746 mmHg 85%
04:00 +1°C° 0 mm 2 mps 746 mmHg 85%
05:00 +1°C° 0 mm 2 mps 745 mmHg 86%
06:00 +1°C° 0 mm 2 mps 745 mmHg 87%
07:00 +1°C° 0 mm 2 mps 746 mmHg 87%
08:00 +1°C° 0 mm 2 mps 746 mmHg 88%
09:00 +1°C° 0 mm 3 mps 745 mmHg 85%
10:00 +2°C° 0 mm 3 mps 745 mmHg 82%
11:00 +3°C° 0 mm 3 mps 745 mmHg 79%
12:00 +3°C° 0 mm 3 mps 744 mmHg 80%
13:00 +4°C° 0 mm 4 mps 744 mmHg 80%
14:00 +4°C° 0 mm 4 mps 743 mmHg 80%
15:00 +3°C° 0 mm 4 mps 743 mmHg 82%
16:00 +3°C° 0 mm 4 mps 743 mmHg 83%
17:00 +3°C° 0 mm 4 mps 742 mmHg 85%
18:00 +3°C° 0 mm 4 mps 742 mmHg 85%
19:00 +1°C° 0 mm 4 mps 742 mmHg 86%
20:00 +1°C° 0 mm 4 mps 742 mmHg 87%
21:00 +1°C° 0 mm 4 mps 742 mmHg 88%
22:00 +3°C° 0 mm 4 mps 741 mmHg 88%
23:00 +3°C° 0 mm 4 mps 741 mmHg 88%

24 January, Sunday

Time Temperature Precipitation Wind Pressure Humidity
00:00 +3°C° 0 mm 4 mps 741 mmHg 90%
01:00 +3°C° 0 mm 4 mps 740 mmHg 92%
02:00 +3°C° 0 mm 4 mps 740 mmHg 93%
03:00 +3°C° 0 mm 4 mps 740 mmHg 93%
04:00 +2°C° 0 mm 5 mps 739 mmHg 92%
05:00 +2°C° 0 mm 5 mps 739 mmHg 92%
06:00 +2°C° 0 mm 5 mps 739 mmHg 93%
07:00 +3°C° 0 mm 4 mps 739 mmHg 94%
08:00 +3°C° 0 mm 4 mps 738 mmHg 94%
09:00 +3°C° 0 mm 4 mps 738 mmHg 94%
10:00 +4°C° 0 mm 4 mps 738 mmHg 94%
11:00 +4°C° 0 mm 4 mps 738 mmHg 94%
12:00 +5°C° 0 mm 4 mps 738 mmHg 91%
13:00 +6°C° 0 mm 4 mps 738 mmHg 87%
14:00 +7°C° 0 mm 3 mps 738 mmHg 83%
15:00 +5°C° 0 mm 3 mps 738 mmHg 83%
16:00 +5°C° 0 mm 3 mps 739 mmHg 84%
17:00 +4°C° 0 mm 3 mps 739 mmHg 84%
18:00 +5°C° 0 mm 2 mps 739 mmHg 84%
19:00 +4°C° 0 mm 2 mps 740 mmHg 85%
20:00 +4°C° 0 mm 2 mps 740 mmHg 85%
21:00 +3°C° 0 mm 2 mps 741 mmHg 85%
22:00 +4°C° 0 mm 1 mps 741 mmHg 85%
23:00 +4°C° 0 mm 1 mps 741 mmHg 86%

25 January, Monday

Time Temperature Precipitation Wind Pressure Humidity
00:00 +2°C° 0 mm 2 mps 741 mmHg 86%
01:00 +2°C° 0 mm 2 mps 742 mmHg 86%
02:00 +2°C° 0 mm 2 mps 742 mmHg 86%
03:00 +2°C° 0 mm 2 mps 741 mmHg 86%
04:00 +1°C° 0 mm 2 mps 741 mmHg 86%
05:00 +1°C° 0 mm 2 mps 741 mmHg 85%
06:00 +1°C° 0 mm 3 mps 740 mmHg 85%
07:00 +1°C° 0 mm 3 mps 740 mmHg 85%
08:00 0°C° 0 mm 4 mps 739 mmHg 85%
09:00 +1°C° 0 mm 5 mps 738 mmHg 89%
10:00 +2°C° 0 mm 5 mps 737 mmHg 92%
11:00 +3°C° 0 mm 6 mps 736 mmHg 95%
12:00 +4°C° 0.3 mm 6 mps 735 mmHg 94%
13:00 +5°C° 0.3 mm 7 mps 734 mmHg 94%
14:00 +5°C° 0.3 mm 7 mps 733 mmHg 93%
15:00 +5°C° 0.8 mm 7 mps 732 mmHg 94%
16:00 +5°C° 0.8 mm 7 mps 731 mmHg 95%
17:00 +5°C° 0.8 mm 6 mps 730 mmHg 95%
18:00 +4°C° 1.4 mm 6 mps 730 mmHg 95%
19:00 +3°C° 1.4 mm 6 mps 730 mmHg 95%
20:00 +2°C° 1.4 mm 6 mps 730 mmHg 95%
21:00 0°C° 1.3 mm 7 mps 730 mmHg 95%
22:00 -1°C° 1.3 mm 8 mps 731 mmHg 94%
23:00 -4°C° 1.3 mm 9 mps 732 mmHg 94%
Show more

We Need Your Consent

Meteoprog and our Service Providers may store and access personal data such as cookies, device identifiers or other similar technologies on your device and process such data to personalise content and ads, as well as provide social media features and to analyse the traffic.

  • Store and/or access information on your device

    Cookies, device identifiers or other information can be stored or accessed on your device for the purposes indicated above.

  • Personalised ads and content, ad and content measurement, audience insights, and products development

    Ads and content can be personalised based on a profile. More data can be added to better personalise ads and content. Ad and content performance can be measured. Insights about the audience who saw the ads and content can be derived. Such data can be used to develop or improve user’s experience, systems and software.

By clicking ‘I Agree’ you will allow the use of indicated cookies, device identifiers, web beacons or other similar technologies. Your settings can be changed in the browser on your device.

For certain purposes, legitimate interests may be relied on, rather than consent. You can read more about this in our Privacy and Cookie Policy.